Location: Benalto
(52.3088°N, 114.2787°W)
Time: 10:30:00
(UTC+00:00)

N. Korean satellite - Pass Details

Date: 09 December 2021
Orbit: 447 x 491 km, 97.3° (Epoch: 20 January)

Event Time Altitude Azimuth Distance (km) Brightness Sun altitude
Rises 11:49:33 0° 30° (NNE) 2,464 10.6 -33.1°
Reaches altitude 10° 11:52:32 10° 60° (ENE) 1,584 9.9 -32.6°
Maximum altitude 11:54:09 13° 89° (E) 1,413 9.7 -32.4°
Drops below altitude 10° 11:55:46 10° 118° (ESE) 1,578 9.8 -32.1°
Sets 11:58:44 0° 148° (SSE) 2,446 10.5 -31.7°
